"Timestamp","TZ","WindDir_Mean (deg)","WindSpd_Mean (km/h)","WindSpd_Min (km/h)","WindSpd_Max (km/h)","Temp_Mean (deg)","RH_Mean (%)","MSLP_Mean (hPa)","Rain_Acc (mm)","Rain_Intensity (mm/h)","Hail_Acc (hits/cm2)","Hail_Intensity (hits/cm2hr)","Solar_Mean (W/m2)"
2021/04/06 00:00:00.011,n,148,13.68,7.92,15.84,21.5,88.3,1015.42,0.07,5.2,0,0,0.036545
2021/04/06 00:01:00.000,n,165,7.56,6.84,8.64,21.5,88.3,1015.42,0.1,2,0,0,0.037422
2021/04/06 00:02:00.000,n,108,9,6.84,11.52,21.5,88.3,1015.42,0.16,2.9,0,0,0.036545
2021/04/06 00:03:00.000,n,112,2.16,0.36,3.24,21.5,88.3,1015.52,0.22,3.4,0,0,0.035706
2021/04/06 00:04:00.000,n,106,6.48,5.4,7.56,21.5,88.3,1015.52,0.27,3.8,0,0,0.040054
2021/04/06 00:05:00.000,n,164,19.08,17.28,21.24,21.5,88.3,1015.42,0.33,3.3,0,0,0.040054
2021/04/06 00:06:00.008,n,121,9.72,6.84,13.32,21.5,88.2,1015.42,0.4,3.8,0,0,0.036545
2021/04/06 00:07:00.005,n,91,2.52,1.8,2.88,21.5,88.2,1015.42,0.43,2.7,0,0,0.038338
2021/04/06 00:08:00.003,n,96,9,7.56,11.52,21.5,88.1,1015.42,0.48,2.4,0,0,0.037422
2021/04/06 00:09:00.001,n,125,8.28,7.2,9,21.5,88.1,1015.42,0.52,2.6,0,0,0.030479
2021/04/06 00:10:00.000,n,151,7.56,5.76,9,21.4,88.1,1015.42,0.54,1.5,0,0,0.038338
2021/04/06 00:11:00.000,n,116,7.56,6.48,8.64,21.5,88.1,1015.42,0.56,0.9,0,0,0.038338
2021/04/06 00:12:00.000,n,134,17.64,14.76,18.72,21.4,88,1015.32,0.58,1.4,0,0,0.035706
2021/04/06 00:13:00.000,n,145,21.24,19.08,22.68,21.4,88,1015.32,0.6,1.3,0,0,0.036545
2021/04/06 00:14:00.007,n,139,13.68,9,17.28,21.4,88,1015.32,0.62,1,0,0,0.035706
2021/04/06 00:15:00.004,n,121,13.32,9.72,18.359998,21.4,87.9,1015.32,0.65,1.5,0,0,0.037422
2021/04/06 00:16:00.002,n,135,13.32,11.16,18,21.4,87.9,1015.32,0.67,1.1,0,0,0.035706
2021/04/06 00:17:00.000,n,130,7.56,7.2,7.92,21.4,87.9,1015.32,0.68,0.7,0,0,0.035706
2021/04/06 00:18:00.006,n,114,10.8,7.2,12.6,21.4,87.9,1015.22,0.69,0.6,0,0,0.038338
2021/04/06 00:19:00.000,n,122,11.16,9.72,13.68,21.4,87.9,1015.22,0.7,0.7,0,0,0.036545
2021/04/06 00:20:00.001,n,183,8.64,4.32,12.96,21.4,87.8,1015.22,0.71,0.6,0,0,0.033951
2021/04/06 00:21:00.000,n,136,19.8,19.08,20.519998,21.3,87.7,1015.12,0.72,0.6,0,0,0.033112
2021/04/06 00:22:00.000,n,114,7.92,5.4,10.440002,21.3,87.7,1015.22,0.73,0.5,0,0,0.033112
2021/04/06 00:23:00.005,n,132,7.2,6.12,9,21.3,87.7,1015.22,0.74,0.5,0,0,0.035706
2021/04/06 00:24:00.010,n,95,1.8,0.72,3.6,21.3,87.7,1015.22,0.75,0.6,0,0,0.032196
2021/04/06 00:25:00.000,n,136,14.4,13.32,15.48,21.3,87.6,1015.12,0.77,1.3,0,0,0.033951
2021/04/06 00:26:00.008,n,136,17.28,12.6,20.880002,21.3,87.6,1015.12,0.79,1,0,0,0.033951
2021/04/06 00:27:00.015,n,136,14.04,10.08,19.44,21.3,87.5,1015.12,0.8,0.7,0,0,0.029602
2021/04/06 00:28:00.000,n,117,8.64,5.76,9.72,21.3,87.5,1015.12,0.82,1.1,0,0,0.033112
2021/04/06 00:29:00.000,n,139,15.84,11.88,16.919998,21.3,87.5,1015.12,0.84,0.8,0,0,0.033112
2021/04/06 00:30:00.001,n,143,13.32,12.24,14.4,21.3,87.5,1015.12,0.85,1,0,0,0.032196
2021/04/06 00:31:00.000,n,155,11.16,6.12,13.32,21.3,87.3,1015.22,0.89,1.8,0,0,0.028763
2021/04/06 00:32:00.000,n,132,18,10.440002,23.759998,21.3,87.3,1015.12,0.91,1.7,0,0,0.029602
2021/04/06 00:33:00.005,n,113,6.84,5.76,8.64,21.3,87.3,1015.12,0.92,0.6,0,0,0.029602
2021/04/06 00:34:00.011,n,124,8.28,5.04,10.8,21.3,87.3,1015.12,0.94,1.3,0,0,0.029602
2021/04/06 00:35:00.001,n,143,15.84,13.32,17.64,21.3,87.3,1015.12,0.95,0.5,0,0,0.030479
2021/04/06 00:36:00.007,n,141,10.08,8.64,12.24,21.3,87.2,1015.22,0.98,1.8,0,0,0.031357
2021/04/06 00:37:00.000,n,121,6.48,5.4,7.2,21.3,87.2,1015.22,1.01,1.8,0,0,0.030479
2021/04/06 00:38:00.003,n,159,14.4,7.2,19.08,21.3,87.1,1015.12,1.05,2.1,0,0,0.029602
2021/04/06 00:39:00.000,n,128,6.48,3.96,9,21.2,87.2,1015.12,1.09,2,0,0,0.030479
2021/04/06 00:40:00.000,n,150,12.6,8.64,15.48,21.2,87.2,1015.12,1.12,2.2,0,0,0.031357
2021/04/06 00:41:00.007,n,118,11.16,9.72,12.24,21.2,87.2,1015.12,1.17,3,0,0,0.031357
2021/04/06 00:42:00.000,n,144,16.2,14.76,18,21.2,87.2,1015.12,1.2,1.9,0,0,0.032196
2021/04/06 00:43:00.003,n,167,9.72,5.76,12.96,21.2,87.2,1015.12,1.23,2.1,0,0,0.031357
2021/04/06 00:44:00.009,n,129,6.84,6.12,7.56,21.2,87.2,1015.02,1.31,4.1,0,0,0.032196
2021/04/06 00:45:00.015,n,152,10.08,7.92,13.32,21.2,87.2,1014.92,1.4,5.9,0,0,0.030479
2021/04/06 00:46:00.000,n,136,11.16,9.36,12.96,21.2,87.2,1015.02,1.52,6.5,0,0,0.028763
2021/04/06 00:47:00.000,n,145,10.08,9,11.16,21.2,87.2,1015.02,1.68,9,0,0,0.028763
2021/04/06 00:48:00.003,n,125,9,3.96,14.4,21.2,87.2,1015.02,1.83,9.2,0,0,0.027885
2021/04/06 00:49:00.000,n,134,9,7.2,11.52,21.2,87.3,1015.02,1.97,9.1,0,0,0.022621
2021/04/06 00:50:00.000,n,139,10.08,2.52,12.96,21.2,87.3,1014.92,2.06,5.2,0,0,0.027885
2021/04/06 00:51:00.004,n,131,12.24,7.56,14.4,21.2,87.3,1014.92,2.13,4.5,0,0,0.032196
2021/04/06 00:52:00.011,n,132,8.28,6.84,9.72,21.2,87.3,1014.92,2.2,3.9,0,0,0.02697
2021/04/06 00:53:00.000,n,126,12.6,11.16,13.68,21.2,87.3,1014.92,2.24,2.6,0,0,0.02697
2021/04/06 00:54:00.006,n,165,11.52,8.28,13.68,21.1,87.4,1014.92,2.31,4.3,0,0,0.025253
2021/04/06 00:55:00.000,n,116,13.68,12.24,16.56,21.1,87.4,1014.92,2.36,2.9,0,0,0.024376
2021/04/06 00:56:00.003,n,170,6.84,5.4,8.28,21.1,87.4,1014.92,2.42,3.6,0,0,0.026131
2021/04/06 00:57:00.000,n,151,10.440002,9,12.6,21.1,87.4,1014.82,2.48,3.6,0,0,0.026131
2021/04/06 00:58:00.000,n,139,21.24,20.519998,21.96,21.1,87.4,1014.82,2.53,3,0,0,0.024376
2021/04/06 00:59:00.006,n,121,7.2,5.4,9.36,21.1,87.4,1014.82,2.58,4.2,0,0,0.020905
2021/04/06 01:00:00.000,n,142,20.880002,18,24.84,21.1,87.4,1014.82,2.65,3.6,0,0,0.024376
2021/04/06 01:01:00.001,n,141,14.04,12.24,15.12,21.1,87.5,1014.82,2.71,3.7,0,0,0.024376
2021/04/06 01:02:00.007,n,127,12.96,11.16,14.76,21.1,87.5,1014.82,2.8,3.9,0,0,0.022621
2021/04/06 01:03:00.013,n,139,8.64,2.16,11.88,21.1,87.5,1014.72,2.89,6.5,0,0,0.024376
2021/04/06 01:04:00.000,n,128,12.96,5.04,19.08,21.1,87.5,1014.72,2.99,5.7,0,0,0.020905
2021/04/06 01:05:00.000,n,115,6.84,3.96,8.64,21.1,87.6,1014.72,3.16,9.2,0,0,0.020905
2021/04/06 01:06:00.000,n,176,9.72,3.6,13.32,21.1,87.5,1014.72,3.34,11.5,0,0,0.020905
2021/04/06 01:07:00.000,n,119,19.08,15.48,23.759998,21.1,87.6,1014.72,3.61,16.1,0,0,0.020905
2021/04/06 01:08:00.000,n,110,8.28,5.04,11.88,21.1,87.6,1014.72,3.85,14.9,0,0,0.016556
2021/04/06 01:09:00.010,n,149,16.56,14.04,18.72,21.1,87.7,1014.72,4.04,11.1,0,0,0.015678
2021/04/06 01:10:00.009,n,143,9.72,9,11.16,21.1,87.7,1014.62,4.18,9.2,0,0,0.021782
2021/04/06 01:11:00.000,n,146,15.12,12.6,18,21.1,87.7,1014.62,4.29,5.8,0,0,0.021782
2021/04/06 01:12:00.005,n,124,14.4,13.68,16.2,21,87.7,1014.62,4.41,7.5,0,0,0.020027
2021/04/06 01:13:00.000,n,146,20.519998,19.08,23.4,21,87.7,1014.62,4.57,10,0,0,0.020027
2021/04/06 01:14:00.000,n,160,20.880002,18.359998,23.4,21,87.7,1014.52,4.68,6.6,0,0,0.025253
2021/04/06 01:15:00.000,n,142,18.72,15.48,24.84,21,87.7,1014.42,4.76,4.7,0,0,0.024376
2021/04/06 01:16:00.004,n,147,14.4,11.88,16.919998,21,87.7,1014.52,4.83,4.2,0,0,0.022621
2021/04/06 01:17:00.000,n,164,14.04,10.8,16.919998,21,87.7,1014.52,4.88,3.2,0,0,0.021782
2021/04/06 01:18:00.000,n,162,12.6,7.92,15.84,21,87.7,1014.52,4.91,2.1,0,0,0.023537
2021/04/06 01:19:00.005,n,164,5.4,3.96,6.48,21,87.8,1014.52,4.93,1.5,0,0,0.013962
2021/04/06 01:20:00.012,n,154,21.96,10.08,24.84,21,87.7,1014.42,4.95,1,0,0,0.023537
2021/04/06 01:21:00.002,n,156,9.72,5.4,13.32,21,87.6,1014.42,4.96,0.9,0,0,0.018311
2021/04/06 01:22:00.000,n,142,21.24,18.72,22.319998,21,87.6,1014.42,4.99,1.2,0,0,0.020905
2021/04/06 01:23:00.000,n,166,12.96,7.92,18.359998,20.9,87.6,1014.52,5.01,1.7,0,0,0.019188
2021/04/06 01:24:00.004,n,133,14.76,14.04,15.48,21,87.6,1014.52,5.03,0.9,0,0,0.019188
2021/04/06 01:25:00.000,n,155,14.04,8.64,16.56,21,87.5,1014.42,5.04,0.8,0,0,0.018311
2021/04/06 01:26:00.000,n,149,21.599998,19.8,23.04,20.9,87.5,1014.42,5.06,1,0,0,0.015678
2021/04/06 01:27:00.006,n,151,12.96,11.16,14.4,20.9,87.5,1014.52,5.08,1,0,0,0.021782
2021/04/06 01:28:00.000,n,116,11.52,9.36,13.32,20.9,87.5,1014.52,5.09,0.9,0,0,0.025253
2021/04/06 01:29:00.000,n,132,10.08,10.08,10.8,21,87.5,1014.52,5.11,1,0,0,0.025253
2021/04/06 01:30:00.005,n,135,14.4,14.04,15.12,20.9,87.4,1014.52,5.12,0.6,0,0,0.025253
2021/04/06 01:31:00.000,n,149,14.4,10.440002,17.64,20.9,87.4,1014.52,5.13,0.8,0,0,0.031357
2021/04/06 01:32:00.001,n,193,3.24,0.72,6.84,21,87.4,1014.52,5.14,0.5,0,0,0.025253
2021/04/06 01:33:00.000,n,152,14.04,12.24,15.12,21,87.4,1014.52,5.15,0.4,0,0,0.02697
2021/04/06 01:34:00.000,n,162,10.440002,8.64,11.52,21,87.4,1014.52,5.16,0.8,0,0,0.024376
2021/04/06 01:35:00.005,n,159,18.359998,17.64,20.16,20.9,87.3,1014.52,5.17,0.7,0,0,0.028763
2021/04/06 01:36:00.011,n,104,5.76,4.68,6.48,20.9,87.4,1014.52,5.18,0.6,0,0,0.027847
2021/04/06 01:37:00.001,n,128,6.48,5.04,8.64,20.9,87.4,1014.52,5.2,0.6,0,0,0.029602
2021/04/06 01:38:00.007,n,115,12.24,9,14.76,20.9,87.3,1014.52,5.2,0.7,0,0,0.02697
2021/04/06 01:39:00.014,n,177,12.96,11.88,14.04,20.9,87.3,1014.52,5.21,0.4,0,0,0.026131
2021/04/06 01:40:00.000,n,141,11.88,9.72,13.68,20.9,87.3,1014.52,5.23,0.6,0,0,0.025253
2021/04/06 01:41:00.000,n,101,9.36,7.92,10.8,20.9,87.3,1014.52,5.25,1.4,0,0,0.027847
2021/04/06 01:42:00.000,n,155,8.28,7.2,9.72,20.9,87.3,1014.52,5.26,0.5,0,0,0.026131
2021/04/06 01:43:00.006,n,116,8.64,6.48,9.72,20.9,87.2,1014.42,5.27,0.8,0,0,0.027847
2021/04/06 01:44:00.000,n,138,8.64,7.2,10.8,20.9,87.3,1014.42,5.29,1.2,0,0,0.026131
2021/04/06 01:45:00.002,n,161,9.72,6.12,13.32,20.9,87.2,1014.42,5.3,0.6,0,0,0.026131
2021/04/06 01:46:00.008,n,169,14.4,11.16,17.64,20.9,87.1,1014.42,5.31,0.3,0,0,0.024376
2021/04/06 01:47:00.014,n,113,13.68,10.8,15.48,20.9,87.1,1014.42,5.32,0.6,0,0,0.024376
2021/04/06 01:48:00.005,n,155,5.4,4.68,7.2,20.9,87.2,1014.42,5.35,1.9,0,0,0.027847
2021/04/06 01:49:00.000,n,177,11.88,10.08,14.4,20.9,87,1014.42,5.37,1,0,0,0.024376
2021/04/06 01:50:00.000,n,129,6.84,5.4,9.36,20.8,87.1,1014.42,5.38,0.6,0,0,0.025253
2021/04/06 01:51:00.000,n,94,5.76,5.04,6.48,20.9,87.1,1014.42,5.39,0.5,0,0,0.026131
2021/04/06 01:52:00.000,n,215,3.6,1.08,6.48,20.9,87.2,1014.42,5.4,0.9,0,0,0.023537
2021/04/06 01:53:00.005,n,140,10.08,9,11.16,20.8,87.1,1014.32,5.41,0.1,0,0,0.022621
2021/04/06 01:54:00.000,n,150,16.56,14.04,23.4,20.8,87,1014.32,5.42,0.5,0,0,0.02697
2021/04/06 01:55:00.002,n,142,7.56,3.6,11.52,20.8,87,1014.32,5.43,0.5,0,0,0.02697
2021/04/06 01:56:00.008,n,126,26.28,20.519998,32.039998,20.8,86.9,1014.12,5.43,0.1,0,0,0.024376
2021/04/06 01:57:00.015,n,134,16.56,12.96,19.8,20.8,86.9,1014.22,5.45,1,0,0,0.02697
2021/04/06 01:58:00.000,n,129,13.68,10.08,14.76,20.8,86.9,1014.12,5.45,0.2,0,0,0.024376
2021/04/06 01:59:00.000,n,115,6.84,5.76,8.28,20.8,86.8,1014.12,5.46,0.4,0,0,0.026131
2021/04/06 02:00:00.001,n,129,12.96,11.52,14.76,20.8,86.8,1014.12,5.46,0.2,0,0,0.022621
2021/04/06 02:01:00.007,n,125,15.12,11.52,16.919998,20.8,86.8,1014.02,5.47,0.4,0,0,0.02697
2021/04/06 02:02:00.000,n,119,22.68,19.8,25.199998,20.8,86.7,1013.92,5.48,0.7,0,0,0.023537
2021/04/06 02:03:00.003,n,92,9,2.16,15.48,20.8,86.7,1013.92,5.49,0.5,0,0,0.022621
2021/04/06 02:04:00.010,n,57,8.28,2.16,18.359998,20.8,86.6,1013.92,5.5,0.4,0,0,0.023537
2021/04/06 02:05:00.000,n,83,16.2,14.4,22.319998,20.8,86.6,1013.92,5.51,0.6,0,0,0.022621
2021/04/06 02:06:00.005,n,139,11.52,9,13.32,20.8,86.6,1013.92,5.51,0.2,0,0,0.024376
2021/04/06 02:07:00.000,n,156,20.519998,15.12,26.28,20.8,86.6,1013.82,5.52,0.2,0,0,0.024376
2021/04/06 02:08:00.001,n,107,8.64,3.24,11.52,20.8,86.6,1013.82,5.52,0.2,0,0,0.024376
2021/04/06 02:09:00.000,n,136,9.36,8.64,10.08,20.8,86.7,1013.92,5.52,0.1,0,0,0.022621
2021/04/06 02:10:00.000,n,150,5.76,2.16,8.28,20.8,86.7,1013.92,5.53,0.2,0,0,0.022621
2021/04/06 02:11:00.004,n,135,16.919998,11.52,19.44,20.8,86.7,1013.92,5.53,0.3,0,0,0.020905
2021/04/06 02:12:00.010,n,130,15.12,10.8,22.319998,20.8,86.6,1013.92,5.54,0.3,0,0,0.021782
2021/04/06 02:13:00.001,n,171,2.88,2.16,3.96,20.8,86.7,1014.02,5.54,0.2,0,0,0.021782
2021/04/06 02:14:00.007,n,204,6.84,1.44,13.32,20.8,86.8,1013.92,5.55,0.1,0,0,0.020905
2021/04/06 02:15:00.013,n,121,24.119998,15.84,25.56,20.7,86.7,1013.92,5.55,0.2,0,0,0.020905
2021/04/06 02:16:00.000,n,144,20.16,12.6,25.56,20.7,86.7,1013.92,5.56,0.5,0,0,0.017395
2021/04/06 02:17:00.000,n,157,14.04,12.96,16.56,20.7,86.7,1013.92,5.57,0.4,0,0,0.033035
2021/04/06 02:18:00.000,n,99,7.2,3.24,12.24,20.7,86.7,1014.02,5.57,0.4,0,0,0.035667
2021/04/06 02:19:00.004,n,123,15.84,12.6,19.08,20.7,86.7,1013.92,5.58,0.3,0,0,0.036545
2021/04/06 02:20:00.000,n,149,13.32,11.16,14.76,20.7,86.7,1014.02,5.59,0.3,0,0,0.033951
2021/04/06 02:21:00.000,n,143,15.84,15.12,16.56,20.7,86.7,1014.02,5.59,0.4,0,0,0.036545
2021/04/06 02:22:00.006,n,136,16.56,7.92,19.08,20.7,86.7,1013.92,5.59,0,0,0,0.032196
2021/04/06 02:23:00.012,n,129,14.4,11.52,16.56,20.7,86.7,1013.92,5.6,0.3,0,0,0.03479
2021/04/06 02:24:00.002,n,135,14.4,12.96,15.48,20.7,86.8,1013.92,5.61,0.4,0,0,0.031319
2021/04/06 02:25:00.000,n,157,13.68,9.72,16.56,20.7,86.8,1013.92,5.61,0.2,0,0,0.033951
2021/04/06 02:26:00.000,n,131,10.440002,7.92,12.96,20.7,86.8,1013.82,5.61,0.3,0,0,0.036545
2021/04/06 02:27:00.004,n,154,9.36,7.92,10.08,20.7,86.8,1013.82,5.62,0.3,0,0,0.033035
2021/04/06 02:28:00.000,n,141,10.08,9,10.8,20.7,86.9,1013.82,5.63,0.6,0,0,0.028725
2021/04/06 02:29:00.000,n,145,9.72,6.84,12.96,20.7,86.9,1013.82,5.64,0.4,0,0,0.033951
2021/04/06 02:30:00.007,n,143,23.4,21.24,25.919998,20.7,86.9,1013.72,5.64,0.1,0,0,0.029602
2021/04/06 02:31:00.000,n,140,12.24,8.64,15.12,20.7,86.9,1013.72,5.65,0.2,0,0,0.035667
2021/04/06 02:32:00.005,n,131,18.72,17.64,19.8,20.7,86.9,1013.72,5.65,0.3,0,0,0.031319
2021/04/06 02:33:00.011,n,149,24.48,23.04,25.56,20.7,86.9,1013.62,5.66,0.3,0,0,0.031319
2021/04/06 02:34:00.001,n,106,24.119998,23.4,24.84,20.7,86.9,1013.62,5.66,0,0,0,0.032196
2021/04/06 02:35:00.000,n,146,10.8,8.64,11.52,20.7,86.9,1013.72,5.67,0.4,0,0,0.032196
2021/04/06 02:36:00.000,n,133,12.6,11.88,14.04,20.7,86.9,1013.62,5.67,0.1,0,0,0.032196
2021/04/06 02:37:00.003,n,139,15.12,10.8,18.72,20.7,86.9,1013.62,5.67,0.1,0,0,0.030441
2021/04/06 02:38:00.000,n,150,13.32,4.32,18.72,20.7,86.9,1013.72,5.67,0,0,0,0.030441
2021/04/06 02:39:00.000,n,127,5.76,3.6,7.56,20.7,86.9,1013.72,5.7,1.6,0,0,0.033951
2021/04/06 02:40:00.005,n,122,11.52,3.6,14.4,20.7,86.9,1013.62,5.7,0.1,0,0,0.035667
2021/04/06 02:41:00.011,n,91,7.56,5.76,8.64,20.7,86.9,1013.62,5.7,0.1,0,0,0.033951
2021/04/06 02:42:00.001,n,96,11.52,9,13.32,20.7,86.9,1013.62,5.7,0,0,0,0.030441
2021/04/06 02:43:00.000,n,119,10.08,8.64,11.52,20.7,87,1013.72,5.7,0.1,0,0,0.029602
2021/04/06 02:44:00.000,n,145,11.16,10.08,12.6,20.7,87,1013.72,5.71,0.2,0,0,0.035667
2021/04/06 02:45:00.003,n,180,11.16,8.64,12.96,20.7,87,1013.72,5.71,0.1,0,0,0.030441
2021/04/06 02:46:00.000,n,138,20.16,15.84,23.4,20.7,87,1013.72,5.72,0.8,0,0,0.030441
2021/04/06 02:47:00.000,n,142,7.2,2.88,10.8,20.7,87,1013.72,5.73,0,0,0,0.030441
2021/04/06 02:48:00.005,n,129,11.16,9.72,12.96,20.7,87,1013.72,5.73,0.1,0,0,0.032196
2021/04/06 02:49:00.011,n,122,7.92,6.12,10.08,20.7,87,1013.72,5.73,0,0,0,0.035667
2021/04/06 02:50:00.001,n,86,12.6,11.16,14.04,20.7,87,1013.72,5.73,0,0,0,0.031319
2021/04/06 02:51:00.006,n,114,5.76,3.24,7.2,20.7,87,1013.72,5.73,0.1,0,0,0.031319
2021/04/06 02:52:00.000,n,225,3.24,0.72,7.2,20.7,87.1,1013.72,5.74,0.4,0,0,0.031319
2021/04/06 02:53:00.002,n,131,13.32,9,14.76,20.7,87,1013.72,5.74,0,0,0,0.030441
2021/04/06 02:54:00.000,n,77,5.04,3.6,6.84,20.7,87,1013.82,5.74,0.1,0,0,0.03479
2021/04/06 02:55:00.000,n,108,5.04,2.16,7.56,20.7,87,1013.72,5.74,0,0,0,0.033035
2021/04/06 02:56:00.005,n,136,12.24,7.2,14.04,20.7,87,1013.72,5.74,0.1,0,0,0.033035
2021/04/06 02:57:00.011,n,128,9,5.76,11.52,20.7,87,1013.72,5.75,0.1,0,0,0.033035
2021/04/06 02:58:00.001,n,134,11.88,9.72,14.4,20.7,87,1013.72,5.75,0.2,0,0,0.036545
2021/04/06 02:59:00.007,n,113,9.36,7.56,11.88,20.7,87,1013.72,5.77,0.9,0,0,0.030441
2021/04/06 03:00:00.015,n,153,14.4,6.48,16.919998,20.7,86.9,1013.72,5.78,1,0,0,0.032196
2021/04/06 03:01:00.000,n,144,7.92,3.6,11.88,20.7,87,1013.72,5.82,1.8,0,0,0.031319
2021/04/06 03:02:00.000,n,139,7.92,6.84,9,20.8,86.9,1013.72,5.85,1.9,0,0,0.031319
2021/04/06 03:03:00.000,n,153,7.92,2.88,11.88,20.8,87,1013.72,5.88,2.1,0,0,0.029602
2021/04/06 03:04:00.000,n,93,10.440002,7.2,13.32,20.8,87,1013.72,5.9,1.1,0,0,0.031319
2021/04/06 03:05:00.000,n,72,9.36,7.92,11.88,20.8,87,1013.72,5.92,0.8,0,0,0.030441
2021/04/06 03:06:00.004,n,52,4.68,3.24,5.4,20.8,87,1013.82,5.93,0.6,0,0,0.030441
2021/04/06 03:07:00.010,n,128,9,4.68,11.88,20.8,86.9,1013.72,5.95,1.4,0,0,0.030441
2021/04/06 03:08:00.000,n,146,7.92,6.84,9.36,20.8,87,1013.72,5.98,2,0,0,0.031319
2021/04/06 03:09:00.005,n,150,7.92,1.8,10.440002,20.8,87,1013.72,6.01,1.7,0,0,0.031319
2021/04/06 03:10:00.000,n,99,7.56,5.76,8.64,20.8,87,1013.72,6.04,1.9,0,0,0.031319
2021/04/06 03:11:00.001,n,118,9,7.92,10.440002,20.8,87,1013.72,6.05,0.7,0,0,0.030441
2021/04/06 03:12:00.000,n,72,5.04,1.8,6.48,20.8,87,1013.72,6.06,0.6,0,0,0.033951
2021/04/06 03:13:00.000,n,145,6.48,1.8,9.36,20.8,87,1013.72,6.07,0.5,0,0,0.03479
2021/04/06 03:14:00.004,n,88,10.8,9,12.24,20.8,87.1,1013.62,6.07,0.1,0,0,0.033951
2021/04/06 03:15:00.010,n,130,7.56,6.48,8.64,20.8,87.1,1013.62,6.08,0.4,0,0,0.030441
2021/04/06 03:16:00.000,n,116,12.6,9.36,17.28,20.8,87.2,1013.52,6.09,0.4,0,0,0.035667
2021/04/06 03:17:00.006,n,116,14.4,12.24,18.359998,20.8,87.2,1013.52,6.09,0.4,0,0,0.033035
2021/04/06 03:18:00.013,n,117,7.92,6.12,11.16,20.8,87.2,1013.52,6.1,0.4,0,0,0.031319
2021/04/06 03:19:00.000,n,116,13.32,11.16,15.12,20.8,87.2,1013.52,6.11,0.3,0,0,0.032196
2021/04/06 03:20:00.000,n,138,19.44,17.28,23.4,20.9,87.3,1013.52,6.12,0.9,0,0,0.033951
2021/04/06 03:21:00.000,n,136,12.6,10.8,14.4,20.9,87.3,1013.52,6.14,0.9,0,0,0.033035
2021/04/06 03:22:00.005,n,134,11.88,10.8,12.6,20.9,87.3,1013.52,6.18,2.2,0,0,0.03479
2021/04/06 03:23:00.000,n,128,6.12,1.8,9.72,20.9,87.3,1013.52,6.19,0.8,0,0,0.035667
2021/04/06 03:24:00.001,n,141,16.2,14.4,16.919998,20.9,87.3,1013.52,6.22,1.7,0,0,0.033035
2021/04/06 03:25:00.008,n,139,9.36,7.56,11.16,20.9,87.3,1013.52,6.25,1.7,0,0,0.035667
2021/04/06 03:26:00.014,n,111,10.440002,9.72,11.88,20.9,87.3,1013.52,6.28,1.7,0,0,0.030441
2021/04/06 03:27:00.004,n,93,6.48,3.96,9.72,20.9,87.3,1013.52,6.31,2,0,0,0.036545
2021/04/06 03:28:00.000,n,133,10.440002,9.36,11.88,20.9,87.3,1013.52,6.37,3.4,0,0,0.036545
2021/04/06 03:29:00.000,n,146,7.92,6.84,9,21,87.4,1013.52,6.43,3.3,0,0,0.03479
2021/04/06 03:30:00.000,n,103,9.36,7.56,12.24,21,87.4,1013.52,6.49,3.1,0,0,0.031319
2021/04/06 03:31:00.000,n,136,6.48,2.16,9.36,21,87.4,1013.42,6.53,3.2,0,0,0.032196
2021/04/06 03:32:00.003,n,357,3.6,1.8,5.4,21,87.4,1013.42,6.56,1.6,0,0,0.036545
2021/04/06 03:33:00.009,n,119,6.84,6.48,7.56,21,87.4,1013.42,6.59,1.9,0,0,0.033951
2021/04/06 03:34:00.000,n,133,6.12,3.24,8.64,21,87.4,1013.42,6.61,1.2,0,0,0.033035
2021/04/06 03:35:00.005,n,68,6.84,4.32,10.440002,21,87.4,1013.42,6.62,1,0,0,0.032196
2021/04/06 03:36:00.012,n,100,10.8,9.36,12.96,21,87.4,1013.42,6.66,1.1,0,0,0.03479
2021/04/06 03:37:00.001,n,132,19.8,16.919998,24.84,21,87.4,1013.42,6.7,3.2,0,0,0.035667
2021/04/06 03:38:00.000,n,86,12.24,7.2,14.04,21,87.4,1013.42,6.73,2.3,0,0,0.0383
2021/04/06 03:39:00.000,n,124,24.48,20.880002,28.08,21.1,87.4,1013.42,6.76,1.4,0,0,0.0383
2021/04/06 03:40:00.003,n,121,11.88,7.92,15.12,21.1,87.4,1013.42,6.79,1.5,0,0,0.03479
2021/04/06 03:41:00.000,n,94,8.64,4.32,12.96,21.1,87.4,1013.42,6.8,0.8,0,0,0.0383
2021/04/06 03:42:00.000,n,100,10.8,9.36,12.24,21.1,87.4,1013.52,6.81,0.5,0,0,0.0383
2021/04/06 03:43:00.005,n,102,7.92,6.84,10.440002,21.1,87.4,1013.52,6.81,0.3,0,0,0.040016
2021/04/06 03:44:00.012,n,116,15.84,13.68,17.64,21.1,87.4,1013.42,6.82,0.3,0,0,0.035667
2021/04/06 03:45:00.002,n,98,11.88,6.48,16.2,21.1,87.4,1013.42,6.82,0.2,0,0,0.036545
2021/04/06 03:46:00.000,n,124,11.52,10.08,12.6,21.1,87.4,1013.52,6.82,0.2,0,0,0.036545
2021/04/06 03:47:00.000,n,105,13.68,10.440002,15.12,21.1,87.4,1013.52,6.83,0.5,0,0,0.0383
2021/04/06 03:48:00.000,n,96,12.24,9.72,14.04,21.1,87.4,1013.52,6.85,0.7,0,0,0.0383
2021/04/06 03:49:00.004,n,106,12.96,9.72,14.76,21.1,87.4,1013.52,6.86,0.6,0,0,0.03479
2021/04/06 03:50:00.002,n,99,10.08,6.84,15.12,21.1,87.4,1013.52,6.87,0.5,0,0,0.0383
2021/04/06 03:51:00.000,n,83,9.72,8.64,12.24,21.1,87.4,1013.52,6.88,0.6,0,0,0.037384
2021/04/06 03:52:00.000,n,116,14.04,11.16,17.28,21.1,87.3,1013.62,6.89,0.4,0,0,0.036545
2021/04/06 03:53:00.013,n,75,16.56,11.88,19.44,21.2,87.3,1013.62,6.89,0.5,0,0,0.0383
2021/04/06 03:54:00.013,n,111,11.88,8.64,14.76,21.2,87.3,1013.52,6.9,0.6,0,0,0.037384
2021/04/06 03:55:00.000,n,84,12.24,11.52,12.6,21.2,87.3,1013.52,6.9,0.1,0,0,0.040016
2021/04/06 03:56:00.000,n,110,5.4,3.6,9,21.2,87.3,1013.62,6.91,0.1,0,0,0.0383
2021/04/06 03:57:00.000,n,124,14.76,11.52,17.64,21.2,87.2,1013.52,6.91,0.4,0,0,0.0383
2021/04/06 03:58:00.006,n,136,11.52,3.96,15.84,21.2,87.2,1013.52,6.92,0.3,0,0,0.039177
2021/04/06 03:59:00.004,n,133,16.919998,15.12,19.44,21.2,87.2,1013.52,6.94,0,0,0,0.040016
2021/04/06 04:00:00.002,n,127,14.4,9.72,18,21.2,87.2,1013.52,6.94,1.1,0,0,0.040894
2021/04/06 04:01:00.000,n,109,3.6,1.8,5.76,21.2,87.2,1013.52,6.94,0.2,0,0,0.039177
2021/04/06 04:02:00.014,n,95,8.64,6.48,9.36,21.2,87.2,1013.52,6.94,0,0,0,0.040016
2021/04/06 04:03:00.013,n,132,4.32,2.88,7.2,21.2,87.1,1013.52,6.94,0.1,0,0,0.040016
2021/04/06 04:04:00.000,n,118,11.52,7.56,13.32,21.2,87.1,1013.52,6.95,0.6,0,0,0.040016
2021/04/06 04:05:00.000,n,112,8.28,3.96,10.08,21.2,87.1,1013.52,6.96,0.2,0,0,0.041771
2021/04/06 04:06:00.000,n,89,7.92,5.4,10.8,21.3,87.1,1013.52,6.96,0.2,0,0,0.041771
2021/04/06 04:07:00.006,n,134,11.52,7.56,16.2,21.3,87.2,1013.52,6.97,0.5,0,0,0.040016
2021/04/06 04:08:00.005,n,102,2.88,1.8,4.68,21.3,87.2,1013.52,6.99,0.7,0,0,0.04261
2021/04/06 04:09:00.003,n,120,4.32,3.24,5.04,21.3,87.2,1013.52,7,0.6,0,0,0.04261
2021/04/06 04:10:00.001,n,79,6.12,5.76,7.92,21.3,87.2,1013.52,7,0.2,0,0,0.04261
2021/04/06 04:11:00.000,n,126,14.76,13.68,15.48,21.3,87.2,1013.52,7,0.2,0,0,0.036545
2021/04/06 04:12:00.015,n,104,3.24,2.16,3.96,21.3,87.3,1013.62,7,0,0,0,0.040894
2021/04/06 04:13:00.000,n,82,8.28,6.84,10.08,21.3,87.3,1013.72,7.02,1,0,0,0.041771
2021/04/06 04:14:00.000,n,85,15.12,10.08,18,21.3,87.3,1013.72,7.02,0,0,0,0.040894
2021/04/06 04:15:00.000,n,166,2.16,1.08,3.6,21.3,87.3,1013.72,7.02,0,0,0,0.04612
2021/04/06 04:16:00.006,n,48,3.6,1.08,6.12,21.3,87.3,1013.72,7.06,2.3,0,0,0.043526
2021/04/06 04:17:00.005,n,129,10.8,9,16.2,21.3,87.3,1013.72,7.06,0,0,0,0.046959
2021/04/06 04:18:00.003,n,90,11.16,8.28,14.4,21.3,87.3,1013.82,7.06,0.1,0,0,0.045242
2021/04/06 04:19:00.001,n,113,11.52,10.08,12.96,21.3,87.3,1013.72,7.07,0.1,0,0,0.041771
2021/04/06 04:20:00.000,n,105,5.76,5.04,6.84,21.3,87.2,1013.72,7.08,0,0,0,0.04261
2021/04/06 04:21:00.013,n,49,3.96,3.6,4.68,21.3,87.2,1013.72,7.08,0.8,0,0,0.0383
2021/04/06 04:22:00.000,n,128,9,7.92,9.36,21.3,87.2,1013.72,7.08,0,0,0,0.04261
2021/04/06 04:23:00.000,n,98,5.04,5.04,5.4,21.3,87.2,1013.72,7.08,0,0,0,0.040016
2021/04/06 04:24:00.000,n,69,5.76,5.04,6.84,21.4,87.2,1013.72,7.08,0,0,0,0.026093
2021/04/06 04:25:00.001,n,87,3.24,2.52,4.32,21.4,87.2,1013.72,7.08,0,0,0,0.028725
2021/04/06 04:26:00.000,n,61,10.440002,3.6,12.96,21.4,87.3,1013.72,7.08,0,0,0,0.031319
2021/04/06 04:27:00.000,n,74,6.84,6.48,7.92,21.4,87.3,1013.82,7.08,0,0,0,0.030441
2021/04/06 04:28:00.012,n,84,8.28,6.12,10.08,21.4,87.3,1013.72,7.08,0,0,0,0.030441
2021/04/06 04:29:00.010,n,142,11.52,5.76,15.84,21.4,87.3,1013.72,7.08,0,0,0,0.032158
2021/04/06 04:30:00.008,n,109,9.72,7.92,10.8,21.4,87.2,1013.72,7.08,0,0,0,0.033073
2021/04/06 04:31:00.000,n,109,14.4,13.32,16.919998,21.4,87.2,1013.72,7.08,0,0,0,0.033073
2021/04/06 04:32:00.003,n,132,5.76,3.24,7.56,21.4,87.2,1013.62,7.08,0,0,0,0.030441
2021/04/06 04:33:00.001,n,132,10.08,8.64,12.24,21.4,87.1,1013.62,7.08,0,0,0,0.029564
2021/04/06 04:34:00.000,n,105,14.04,12.96,15.12,21.5,87.1,1013.62,7.08,0,0,0,0.024376